Regional Weather Roundup
Issued by NWS Jackson, KY

Home | Current Version | Previous Version | Text Only | Print | Product List | Glossary On
Versions: 1 2 3 4 5 6 7 8 9 10 11 12 13 14 15 16 17 18 19 20 21 22 23 24 25 26 27 28 29 30 31 32 33 34 35 36 37 38 39 40 41 42 43 44 45 46 47 48 49 50
000
ASUS43 KJKL 041610
RWRJKL

EAST KENTUCKY HOURLY WEATHER ROUNDUP
NATIONAL WEATHER SERVICE JACKSON KY
1200 PM EDT SAT JUL 04 2015

NOTE: "FAIR" INDICATES FEW OR NO CLOUDS BELOW 12,000 FEET WITH
NO SIGNIFICANT WEATHER AND/OR OBSTRUCTIONS TO VISIBILITY.

* THESE REPORTS ARE NOT UNDER NWS QUALITY CONTROL AND MAY NOT
  REPORT WEATHER SUCH AS PRECIPITATION AND FOG.

KYZ079-080-083-085-087-088-110-112-115-119-120-041700
...EASTERN KENTUCKY...

CITY           SKY/WX    TMP DP  RH WIND       PRES   REMARKS
JACKSON        PTSUNNY   74  67  78 CALM      30.03S
LONDON         PTSUNNY   77  64  64 W8        30.03R
SOMERSET*      CLOUDY    72  68  88 S3        30.04S
MONTICELLO*    CLOUDY    76  71  84 W5        30.06R
MIDDLESBORO*   CLOUDY    77  69  77 W5        30.04S
HARLAN APT*      N/A     72  66  83 W6        30.05S
HAZARD APT*    PTSUNNY   75  66  73 W8        30.03R
BLACK MTN*       N/A     63  63 100 S5          N/A
PIKEVILLE APT* CLOUDY    72  68  88 W5        30.03R
BIG SANDY*     LGT RAIN  68  67  98 CALM      30.03R
MOREHEAD APT*  CLOUDY    73  66  78 N5        30.04S
$$

KYZ035-036-041-042-044-050-067-078-099-041700
...CENTRAL KENTUCKY...

CITY           SKY/WX    TMP DP  RH WIND       PRES   REMARKS
MT STERLING*   CLOUDY    73  68  83 CALM      30.04R
FLEMING/MASON* CLOUDY    73  66  78 N5        30.04R
DANVILLE*      CLOUDY    73  64  73 NW3       30.04R
RICHMOND*      PTSUNNY   73  66  78 CALM      30.03R
LEXINGTON      CLOUDY    74  67  78 N3        30.03R
FRANKFORT      PTSUNNY   75  65  70 NE5       30.01S
$$

KYZ091>093-OHZ055-061-077-WVZ005-015-034-035-042-041700
...SOUTHERN OHIO/WEST VIRGINIA...

CITY           SKY/WX    TMP DP  RH WIND       PRES   REMARKS
COVINGTON      PTSUNNY   75  60  59 CALM      30.03R
COLUMBUS       MOSUNNY   73  59  61 N6        29.99S
DAYTON         MOSUNNY   75  57  53 N7        30.04R
WILMINGTON     SUNNY     74  49  41 NW7       30.02R
HUNTINGTON     MOSUNNY   75  66  73 VRB3      30.00R
CHARLESTON     PTSUNNY   74  64  71 VRB3      29.99S
PINEVILLE*     RAIN      72  69  88 MISG      30.08R
BECKLEY        CLOUDY    70  65  84 W6        30.05R
BLUEFIELD      PTSUNNY   73  63  70 W13       30.08R
$$

VAZ002-007-008-TNZ017-027-036-066-071-041700
...SOUTHWEST VIRGINIA/EAST TENNESSEE...

CITY           SKY/WX    TMP DP  RH WIND       PRES   REMARKS
WISE*          CLOUDY    70  68  94 SW8       30.10S
JONESVILLE*      N/A    N/A N/A N/A MISG        N/A
ABINGDON*      CLOUDY    72  68  87 W7        30.07S
BRISTOL        LGT RAIN  72  68  87 SW12      30.06R
KNOXVILLE      LGT RAIN  71  68  90 SW13      30.05R FOG
OAK RIDGE      CLOUDY    73  68  84 VRB6      30.06R
CROSSVILLE     CLOUDY    70  67  90 SW5       30.09R FOG
NASHVILLE      CLOUDY    78  72  81 S12       30.02R
$$

...KEY TO REMARKS...
VSB - VISIBILITY IN MILES
WCI - WIND CHILL INDEX
HX  - HEAT INDEX

$$


USA.gov is the U.S. government's official web portal to all federal, state and local government web resources and services.